Location: Grasslands National Park East Block
(49.0708°N, 106.5295°W)
Time: 14:40:38
(UTC-06:00)

Vanguard 1 Rocket - Pass Details

Date: 28 September 2019
Orbit: 650 x 4226 km, 34.3° (Epoch: 13 October)

Event Time Altitude Azimuth Distance (km) Brightness Sun altitude
Rises 13:35:11 0° 186° (S) 7,902 13.1 38.1°
Reaches altitude 10° 13:42:58 10° 172° (S) 7,236 13.0 37.8°
Maximum altitude 13:58:33 20° 134° (SE) 6,492 12.2 37.1°
Drops below altitude 10° 14:13:05 10° 96° (E) 6,836 11.8 36.2°
Sets 14:19:50 0° 83° (E) 7,382 11.8 35.7°
